Weather History for Tri-Cities, TN

Change the Weather History Date:

Tuesday, March 26, 2013

  Actual Average Record
Temperature  
Mean Temperature 35 °F 49 °F  
Max Temperature 39 °F 62 °F 82 °F (1944)
Min Temperature 30 °F 37 °F 11 °F (1940)
Degree Days  
Heating Degree Days 30 16  
Month to date heating degree days 635 494  
Since 1 July heating degree days 3804 3876  
Cooling Degree Days 0 0  
Month to date cooling degree days 0 0  
Year to date cooling degree days 0 0  
Moisture  
Dew Point 27 °F    
Average Humidity 78    
Maximum Humidity 85    
Minimum Humidity 70    
Precipitation  
Precipitation 0.01 in 0.12 in 1.48 in (1965)
Month to date precipitation 4.01 2.87  
Year to date precipitation 15.86 9.69  
Snow  
Snow 0.20 in 0.10 in - ()
Month to date snowfall 1.5 1.3  
Since 1 July snowfall 9.2 12.1  
Snow Depth 0.00 in    
Sea Level Pressure  
Sea Level Pressure 30.06 in    
Wind  
Wind Speed 10 mph (West)    
Max Wind Speed 17 mph    
Max Gust Speed 22 mph    
Visibility 8 miles    
Events Snow    
T = Trace of Precipitation, MM = Missing Value Source: NWS Daily Summary

Daily Weather History Graph

Daily Weather History Graph

Search for Another Location

Airport:

Trip Planner

Search our weather history database for the weather conditions in past years. The results will help you decide how hot, cold, wet, or windy it might be!

Date:

Astronomy

Mar. 26, 2013 Rise Set
Actual Time 7:24 AM EDT 7:46 PM EDT
Civil Twilight 6:58 AM EDT 8:12 PM EDT
Nautical Twilight 6:27 AM EDT 8:43 PM EDT
Astronomical Twilight 5:57 AM EDT 9:13 PM EDT
Moon 7:21 PM EDT (3/26) 6:39 AM EDT (3/26)
Length of Visible Light 13h 14m
Length of Day
12h 22m
Waxing Gibbous, 99% of the Moon is Illuminated
Mar 26
Waxing Gibbous
Mar 27
Full
Apr 3
Last Quarter
Apr 10
New
Apr 18
First Quarter

Hourly Weather History & Observations

Time (EDT) Temp. Windchill Dew Point Humidity Pressure Visibility Wind Dir Wind Speed Gust Speed Precip Events Conditions
12:53 AM 30.9 °F 21.7 °F 26.1 °F 82% 29.94 in 7.0 mi West 11.5 mph - 0.00 in Snow Light Snow
1:53 AM 30.9 °F 21.7 °F 26.1 °F 82% 29.94 in 9.0 mi WSW 11.5 mph - 0.00 in Snow Light Snow
2:53 AM 30.9 °F 22.2 °F 26.1 °F 82% 29.95 in 7.0 mi West 10.4 mph - 0.00 in Snow Light Snow
3:53 AM 30.0 °F 20.5 °F 26.1 °F 85% 29.95 in 4.0 mi WSW 11.5 mph - 0.00 in Snow Light Snow
4:53 AM 30.0 °F 21.7 °F 26.1 °F 85% 29.95 in 9.0 mi WSW 9.2 mph - 0.00 in Snow Light Snow
5:04 AM 30.9 °F 22.8 °F 26.1 °F 82% 29.95 in 9.0 mi WSW 9.2 mph - 0.00 in Snow Light Snow
5:53 AM 30.9 °F 22.2 °F 26.1 °F 82% 29.95 in 9.0 mi West 10.4 mph - 0.00 in Snow Light Snow
6:53 AM 30.9 °F 24.3 °F 26.1 °F 82% 29.96 in 9.0 mi West 6.9 mph - 0.00 in Snow Light Snow
7:53 AM 30.9 °F 23.5 °F 26.1 °F 82% 29.98 in 10.0 mi WSW 8.1 mph - 0.00 in   Overcast
8:27 AM 30.9 °F 22.2 °F 27.0 °F 85% 29.99 in 9.0 mi WSW 10.4 mph - 0.00 in Snow Light Snow
8:53 AM 30.9 °F 22.8 °F 27.0 °F 85% 30.00 in 9.0 mi WSW 9.2 mph - 0.00 in Snow Light Snow
9:14 AM 32.0 °F 24.8 °F 27.0 °F 82% 30.01 in 3.0 mi West 8.1 mph - 0.00 in Snow Light Snow
9:50 AM 32.0 °F 24.2 °F 28.4 °F 87% 30.02 in 2.0 mi WSW 9.2 mph - 0.00 in Snow Light Snow
9:53 AM 32.0 °F 22.5 °F 28.0 °F 85% 30.03 in 2.0 mi West 12.7 mph - 0.00 in Snow Light Snow
10:53 AM 33.1 °F 26.1 °F 28.0 °F 82% 30.05 in 2.0 mi West 8.1 mph - 0.01 in Snow Light Snow
11:53 AM 34.0 °F 26.0 °F 28.9 °F 82% 30.07 in 4.0 mi West 10.4 mph - 0.00 in Snow Light Snow
12:13 PM 34.0 °F 24.6 °F 28.0 °F 79% 30.06 in 6.0 mi West 13.8 mph - 0.00 in Snow Light Snow
12:53 PM 36.0 °F 28.5 °F 28.9 °F 76% 30.07 in 9.0 mi WNW 10.4 mph - 0.00 in Snow Light Snow
12:55 PM 36.0 °F 27.5 °F 28.9 °F 76% 30.07 in 9.0 mi West 12.7 mph - 0.00 in Snow Light Snow
1:36 PM 37.9 °F 29.6 °F 30.0 °F 73% 30.08 in 9.0 mi WNW 13.8 mph 20.7 mph 0.00 in Snow Light Snow
1:53 PM 36.0 °F 27.5 °F 28.0 °F 73% 30.08 in 9.0 mi WNW 12.7 mph - 0.00 in Snow Light Snow
2:53 PM 37.9 °F 31.5 °F 28.0 °F 68% 30.08 in 9.0 mi West 9.2 mph - 0.00 in Snow Light Snow
3:53 PM 36.0 °F 27.5 °F 27.0 °F 70% 30.09 in 6.0 mi WNW 12.7 mph - 0.00 in Snow Light Snow
4:24 PM 36.0 °F 26.7 °F 26.1 °F 67% 30.09 in 9.0 mi WNW 15.0 mph - 0.00 in Snow Light Snow
4:53 PM 37.0 °F 29.8 °F 26.1 °F 65% 30.10 in 9.0 mi WNW 10.4 mph - 0.00 in   Overcast
5:53 PM 36.0 °F 28.0 °F 26.1 °F 67% 30.12 in 10.0 mi West 11.5 mph - 0.00 in Snow Light Snow
6:00 PM - - - N/A% - - North - - N/A   Unknown
6:41 PM 36.0 °F 29.6 °F 26.1 °F 67% 30.14 in 9.0 mi West 8.1 mph - 0.00 in Snow Light Snow
6:53 PM 35.1 °F 27.4 °F 26.1 °F 70% 30.15 in 10.0 mi West 10.4 mph - 0.00 in Snow Light Snow
7:53 PM 34.0 °F 25.5 °F 26.1 °F 73% 30.16 in 9.0 mi West 11.5 mph - 0.00 in Snow Light Snow
8:53 PM 34.0 °F 26.0 °F 26.1 °F 73% 30.18 in 10.0 mi West 10.4 mph - 0.00 in   Overcast
9:53 PM 34.0 °F 26.0 °F 26.1 °F 73% 30.20 in 9.0 mi West 10.4 mph - 0.00 in Snow Light Snow
10:53 PM 34.0 °F 26.0 °F 26.1 °F 73% 30.21 in 9.0 mi West 10.4 mph - 0.00 in Snow Light Snow
11:43 PM 33.1 °F 24.9 °F 28.0 °F 82% 30.21 in 8.0 mi West 10.4 mph - 0.00 in Snow Light Snow
11:53 PM 33.1 °F 24.9 °F 28.0 °F 82% 30.22 in 9.0 mi West 10.4 mph - 0.00 in Snow Light Snow